Airport Information

KBDN - Bend Municipal Airport

KBDN 251215Z AUTO 13003KT 10SM CLR 04/M02 A3000 RMK AO2


  • General Information

  • Coordinates: N 44°5'40"/ W 121°12'0"
  • Location: N/A
  • Surveyed Elevation: 3460 MSL

Operations

Flow Name Active Runways Conditions

Green background denotes normal operations.


Common Frequencies

Callsign Frequency Position Name

More at the Document Center


Charts